Regional Weather Roundup
Issued by NWS Kansas City/Pleasant Hill, MO

Home | Current Version | Previous Version | Graphics & Text | Print | Product List | Glossary Off
Versions: 1 2 3 4 5 6 7 8 9 10 11 12 13 14 15 16 17 18 19 20 21 22 23 24 25 26 27 28 29 30 31 32 33 34 35 36 37 38 39 40 41 42 43 44 45 46 47 48 49 50

168
ASUS43 KEAX 181110
RWREAX

WEATHER ROUNDUP FOR EASTERN KANSAS AND NORTHWEST MISSOURI
NATIONAL WEATHER SERVICE KANSAS CITY/PLEASANT HILL MO
600 AM CDT WED APR 18 2018

KSZ040-057-103>105-MOZ028-029-037-043-181200-
...KANSAS CITY METROPOLITAN AREA...

CITY           SKY/WX    TMP DP  RH WIND       PRES   REMARKS
K.C. INTL      PTCLDY    46  36  68 NW14      29.62R
K.C. DOWNTOWN  CLEAR     49  38  65 W13       29.60R
LEES SUMMIT    CLEAR     48  41  76 W10       29.58R
OLATHE - IXD   CLEAR     48  36  63 NW20G33   29.66R
OLATHE - OJC   CLEAR     48  38  68 NW16G26   29.63R
LAWRENCE       CLEAR     45  34  65 NW15G32   29.69R

$$

MOZ001>008-011>017-020>025-030>033-038>040-044>046-053-054-181200-
...NORTHERN AND CENTRAL MISSOURI...

CITY           SKY/WX    TMP DP  RH WIND       PRES   REMARKS
ST. JOSEPH     PTCLDY    46  35  65 NW13      29.64R
MOSBY          MOSUNNY   46  37  71 W7        29.59R
WARRENSBURG    PTCLDY    48  43  81 SW9       29.54R
WHITEMAN AFB   PTCLDY    48  42  79 SW7       29.50R
CLINTON        MOCLDY    63  48  59 W20G29    29.57R
SEDALIA        PTCLDY    48  44  86 SE9       29.55R
WARSAW         NOT AVBL
CHILLICOTHE      N/A     44  35  70 E7G18     29.58R
KIRKSVILLE     CLOUDY    40  33  76 E21G31    29.59F WCI  30

$$

MOZ041-047>049-056>058-063>065-088>090-097-181200-
...EASTERN AND SOUTHERN MISSOURI...

CITY           SKY/WX    TMP DP  RH WIND       PRES   REMARKS
ST. LOUIS INTL CLEAR     44  37  76 E14       29.70F
SPIRIT OF STL  MOCLDY    45  38  76 E9        29.67F
COLUMBIA       PTCLDY    47  37  68 E14G24    29.58F
JEFFERSON CITY PTCLDY    50  39  66 E12       29.58F
OSAGE BEACH    CLOUDY    56  48  74 S10       29.57F
SPRINGFIELD    CLOUDY    67  50  54 W23G32    29.65R
BRANSON        MOCLDY    66  54  63 W14G25    29.70R
JOPLIN         CLEAR     58  40  51 W16G32    29.74R
WEST PLAINS    CLEAR     63  51  65 SW9       29.66S

$$

IAZ060-094-KSZ022-034>040-054-083-096-NEZ052-066-093-181200-
...KANSAS...SOUTHEAST NEBRASKA AND IOWA...

CITY           SKY/WX    TMP DP  RH WIND       PRES   REMARKS
TOPEKA         CLEAR     43  34  70 NW18G31   29.72R WCI  35
MANHATTAN      PTCLDY    40  32  73 NW10G21   29.80R WCI  33
EMPORIA        CLEAR     43  33  68 NW17G32   29.76R
CHANUTE        CLEAR     51  36  56 W18       29.77R
WICHITA        CLEAR     51  41  68 NW20G28   29.83R
OMAHA          FLURRIES  35  31  85 N18       29.77R WCI  24
LINCOLN        FLURRIES  35  32  88 NW16      29.82R WCI  25
FALLS CITY     PTCLDY    40  31  70 NW18G26   29.70R WCI  31
LAMONI         CLOUDY    39  30  70 VRB3      29.61R
DES MOINES     CLOUDY    36  25  64 NE9       29.72R WCI  29

$$





USA.gov is the U.S. government's official web portal to all federal, state and local government web resources and services.